EW6470 Weather Reports


Display with metric or nautical units.
time (UTC)temp
F
wind
direction
speed
MPH
gust
MPH
rain 1hr
in
rain 24hr
in
rain mn
in
humidity
%
barometer
mb
20260506033511 55 36 1.0 4.0 0.00 0.00 0.00 54 1006.1
20260506033030 55 167 0.0 4.0 0.00 0.00 0.00 52 1006.1
20260506032510 54 161 1.0 2.0 0.00 0.00 0.00 51 1006.0
20260506032011 54 320 1.0 2.0 0.00 0.00 0.00 53 1006.0
20260506031529 55 15 1.0 2.0 0.00 0.00 0.00 52 1006.0
20260506031011 54 200 0.0 1.0 0.00 0.00 0.00 54 1006.0
20260506030514 53 338 0.0 1.0 0.00 0.00 0.00 54 1006.0
20260506030029 53 0 0.0 2.0 0.00 0.00 0.00 56 1006.0
20260506025514 52 0 0.0 2.0 0.00 0.00 0.00 57 1006.0
20260506025007 52 37 1.0 2.0 0.00 0.00 0.00 56 1005.9
20260506024530 52 0 0.0 0.0 0.00 0.00 0.00 57 1006.0
20260506024008 52 0 0.0 1.0 0.00 0.00 0.00 60 1005.9
20260506023512 51 265 0.0 2.0 0.00 0.00 0.00 58 1005.9
20260506023030 51 0 0.0 2.0 0.00 0.00 0.00 58 1006.0
20260506022510 51 346 0.0 2.0 0.00 0.00 0.00 59 1005.9
20260506022012 51 0 0.0 3.0 0.00 0.00 0.00 60 1005.9
20260506021528 50 250 0.0 3.0 0.00 0.00 0.00 62 1005.9
20260506021010 51 241 1.0 2.0 0.00 0.00 0.00 60 1005.9
20260506020514 51 360 0.0 2.0 0.00 0.00 0.00 60 1005.9
20260506020028 51 18 0.0 2.0 0.00 0.00 0.00 62 1005.8
20260506015510 51 325 0.0 2.0 0.00 0.00 0.00 62 1005.8
20260506015012 51 0 0.0 2.0 0.00 0.00 0.00 63 1005.8
20260506014554 51 262 1.0 2.0 0.00 0.00 0.00 63 1005.8
20260506014009 51 260 1.0 3.0 0.00 0.00 0.00 67 1005.7
20260506013510 50 335 0.0 3.0 0.00 0.00 0.00 68 1005.9
20260506013041 50 281 2.0 7.0 0.00 0.00 0.00 67 1005.9
20260506012511 50 297 2.0 7.0 0.00 0.00 0.00 65 1005.8
20260506012012 50 286 1.0 6.0 0.00 0.00 0.00 62 1005.8
20260506011528 50 294 1.0 6.0 0.00 0.00 0.00 60 1005.8
20260506011012 51 287 2.0 4.0 0.00 0.00 0.00 60 1005.8
20260506010511 51 235 2.0 4.0 0.00 0.00 0.00 57 1005.8
20260506010033 51 275 1.0 3.0 0.00 0.00 0.00 57 1005.7
20260506005510 51 265 1.0 3.0 0.00 0.00 0.00 56 1005.6
20260506005010 51 192 1.0 7.0 0.00 0.00 0.00 55 1005.6
20260506004526 52 227 3.0 8.0 0.00 0.00 0.00 54 1005.5
20260506004006 52 159 3.0 8.0 0.00 0.00 0.00 53 1005.5
20260506003508 52 132 3.0 8.0 0.00 0.00 0.00 48 1005.5
20260506003028 53 113 3.0 6.0 0.00 0.00 0.00 51 1005.4
20260506002510 53 282 2.0 6.0 0.00 0.00 0.00 49 1005.4
20260506002013 53 150 3.0 6.0 0.00 0.00 0.00 51 1005.4
20260506001529 53 63 2.0 5.0 0.00 0.00 0.00 52 1005.3
20260506001010 53 117 1.0 3.0 0.00 0.00 0.00 53 1005.2
20260506000510 53 0 1.0 3.0 0.00 0.00 0.00 51 1005.2
20260506000027 53 82 1.0 6.0 0.00 0.00 0.00 52 1005.3
20260505235511 53 0 1.0 6.0 0.00 0.00 0.00 53 1005.3
20260505235010 53 83 2.0 4.0 0.00 0.00 0.00 53 1005.2
20260505234531 53 79 1.0 4.0 0.00 0.00 0.00 49 1005.2
20260505234009 53 342 0.0 3.0 0.00 0.00 0.00 51 1005.3
20260505233509 53 150 1.0 3.0 0.00 0.00 0.00 52 1005.2
20260505233029 53 157 0.0 3.0 0.00 0.00 0.00 52 1005.2
20260505232509 53 0 0.0 3.0 0.00 0.00 0.00 55 1005.1
20260505232011 53 269 1.0 3.0 0.00 0.00 0.00 49 1005.1
20260505231531 52 248 1.0 6.0 0.00 0.00 0.00 47 1005.1
20260505231011 52 250 2.0 6.0 0.00 0.00 0.00 49 1005.0
20260505230509 52 290 1.0 4.0 0.00 0.00 0.00 50 1005.0
20260505230030 52 251 1.0 5.0 0.00 0.00 0.00 53 1005.1
20260505225507 52 99 0.0 6.0 0.00 0.00 0.00 51 1005.0
20260505225007 53 160 2.0 6.0 0.00 0.00 0.00 52 1005.0
20260505224527 52 132 1.0 6.0 0.00 0.00 0.00 56 1005.1
20260505224012 52 257 2.0 7.0 0.00 0.00 0.00 52 1005.1
20260505223509 52 168 2.0 7.0 0.00 0.00 0.00 54 1005.0
20260505223045 52 156 1.0 6.0 0.00 0.00 0.00 59 1005.0
20260505222515 52 205 1.0 6.0 0.00 0.00 0.00 58 1005.0
20260505222008 52 142 3.0 6.0 0.00 0.00 0.00 53 1005.1
20260505221530 52 115 1.0 5.0 0.00 0.00 0.00 49 1005.1
20260505221013 52 194 1.0 2.0 0.00 0.00 0.00 51 1005.0
20260505220506 52 0 1.0 2.0 0.00 0.00 0.00 48 1005.0
20260505220047 52 0 1.0 3.0 0.00 0.00 0.00 50 1004.9
20260505215509 52 121 0.0 3.0 0.00 0.00 0.00 53 1004.9
20260505215009 52 65 1.0 4.0 0.00 0.00 0.00 52 1004.9
20260505214535 52 126 1.0 4.0 0.00 0.00 0.00 50 1004.9
20260505214010 52 136 1.0 6.0 0.00 0.00 0.00 50 1004.9
20260505213514 52 86 1.0 6.0 0.00 0.00 0.00 49 1004.9
20260505213032 52 83 1.0 5.0 0.00 0.00 0.00 50 1004.7
20260505212510 52 111 1.0 4.0 0.00 0.00 0.00 50 1004.7
20260505212010 52 121 1.0 5.0 0.00 0.00 0.00 49 1004.8
20260505211531 51 117 1.0 5.0 0.00 0.00 0.00 51 1004.7
20260505211012 51 65 0.0 3.0 0.00 0.00 0.00 50 1004.8
20260505210509 51 154 1.0 4.0 0.00 0.00 0.00 51 1004.8
20260505210033 51 149 0.0 6.0 0.00 0.00 0.00 51 1004.7
20260505205511 51 120 1.0 6.0 0.00 0.01 0.00 50 1004.7
20260505205011 51 104 1.0 3.0 0.00 0.01 0.00 51 1004.7
20260505204530 50 67 0.0 3.0 0.00 0.01 0.00 52 1004.7
20260505204008 50 0 1.0 4.0 0.00 0.01 0.00 53 1004.8
20260505203510 50 0 0.0 5.0 0.00 0.01 0.00 60 1004.7
20260505203028 49 0 0.0 5.0 0.00 0.01 0.00 60 1004.8
20260505202507 49 119 1.0 5.0 0.00 0.01 0.00 62 1004.8
20260505202011 48 146 2.0 5.0 0.00 0.01 0.00 62 1004.7
20260505201529 48 146 2.0 5.0 0.00 0.01 0.00 63 1004.7
20260505201010 48 76 1.0 2.0 0.00 0.01 0.00 64 1004.7
20260505200512 48 135 0.0 3.0 0.00 0.01 0.00 64 1004.7
20260505200036 48 192 1.0 3.0 0.00 0.01 0.00 65 1004.7
20260505195510 47 0 1.0 3.0 0.00 0.04 0.00 65 1004.8
20260505195015 47 107 0.0 5.0 0.00 0.04 0.00 67 1004.7
20260505194528 47 124 1.0 5.0 0.00 0.04 0.00 66 1004.6
20260505194007 47 170 1.0 6.0 0.00 0.04 0.00 67 1004.6
20260505193510 47 174 1.0 6.0 0.00 0.04 0.00 69 1004.6
20260505193028 47 150 2.0 6.0 0.00 0.04 0.00 68 1004.6
20260505192511 47 136 1.0 5.0 0.00 0.04 0.00 68 1004.5
20260505192011 48 146 2.0 4.0 0.00 0.04 0.00 65 1004.5
20260505191530 48 163 2.0 4.0 0.00 0.04 0.00 63 1004.4
20260505191014 48 88 0.0 2.0 0.00 0.04 0.00 62 1004.4
20260505190513 48 0 0.0 4.0 0.00 0.04 0.00 61 1004.3
20260505190029 48 0 1.0 5.0 0.00 0.04 0.00 61 1004.5
20260505185514 48 118 1.0 7.0 0.00 0.08 0.00 60 1004.3
20260505185011 48 165 0.0 7.0 0.00 0.08 0.00 60 1004.4
20260505184532 48 110 1.0 4.0 0.00 0.08 0.00 60 1004.3
20260505184009 48 117 2.0 4.0 0.00 0.08 0.00 59 1004.3
20260505183509 48 112 1.0 7.0 0.00 0.08 0.00 58 1004.3
20260505183035 48 181 1.0 7.0 0.00 0.08 0.00 60 1004.3
20260505182511 48 163 1.0 6.0 0.00 0.08 0.00 59 1004.3
20260505182012 48 135 1.0 5.0 0.00 0.08 0.00 57 1004.3
20260505181530 48 155 1.0 7.0 0.00 0.08 0.00 57 1004.2
20260505181010 48 144 1.0 8.0 0.00 0.08 0.00 55 1004.2
20260505180511 48 112 2.0 8.0 0.00 0.08 0.00 55 1004.0
20260505180028 48 103 0.0 4.0 0.00 0.08 0.00 55 1003.9
20260505175512 48 127 0.0 6.0 0.00 0.11 0.00 58 1004.0
20260505175011 47 103 2.0 6.0 0.00 0.11 0.00 58 1004.0
20260505174532 47 160 2.0 6.0 0.00 0.11 0.00 57 1004.0
20260505174011 47 129 2.0 6.0 0.00 0.11 0.00 57 1004.1
20260505173515 47 128 2.0 6.0 0.00 0.11 0.00 57 1004.0
20260505173031 47 112 1.0 5.0 0.00 0.11 0.00 58 1003.9
20260505172509 46 144 0.0 5.0 0.00 0.11 0.00 58 1003.8
20260505172008 46 136 1.0 7.0 0.00 0.11 0.00 58 1003.8
20260505171532 46 133 2.0 7.0 0.00 0.11 0.00 58 1003.7
20260505171010 46 137 1.0 8.0 0.00 0.11 0.00 60 1003.8
20260505170508 46 230 2.0 8.0 0.00 0.11 0.00 61 1003.7
20260505170031 46 92 1.0 4.0 0.00 0.11 0.00 61 1003.6
20260505165510 45 133 1.0 5.0 0.00 0.15 0.00 60 1003.6
20260505165011 45 0 1.0 5.0 0.00 0.15 0.00 63 1003.5
20260505164528 45 95 1.0 5.0 0.00 0.15 0.00 62 1003.5
20260505164011 45 132 0.0 2.0 0.00 0.15 0.00 64 1003.4
20260505163513 44 139 0.0 2.0 0.00 0.15 0.00 67 1003.3
20260505163028 44 0 0.0 2.0 0.00 0.15 0.00 67 1003.4
20260505162516 44 0 0.0 1.0 0.00 0.15 0.00 71 1003.4
20260505162014 43 157 0.0 1.0 0.00 0.15 0.00 71 1003.4
20260505161540 43 0 0.0 0.0 0.00 0.15 0.00 75 1003.3
20260505161011 43 0 0.0 1.0 0.00 0.15 0.00 74 1003.3
20260505160516 42 0 0.0 1.0 0.00 0.15 0.00 75 1003.2
20260505153028 42 0 0.0 2.0 0.00 0.17 0.00 80 1003.0
20260505152510 42 0 0.0 2.0 0.00 0.17 0.00 81 1002.8
20260505152010 41 0 0.0 1.0 0.00 0.17 0.00 81 1002.8
20260505151528 41 44 0.0 1.0 0.00 0.17 0.00 83 1002.7
20260505151011 41 298 0.0 1.0 0.00 0.17 0.00 84 1002.8
20260505150510 41 20 0.0 1.0 0.00 0.17 0.00 84 1002.7
20260505140511 38 0 0.0 1.0 0.00 0.21 0.00 95 1002.6
20260505125013 37 0 0.0 0.0 0.00 0.29 0.00 95 1002.6
20260505124527 38 0 0.0 0.0 0.00 0.29 0.00 95 1002.6
20260505124009 38 0 0.0 0.0 0.00 0.29 0.00 95 1002.7
20260505123507 38 0 0.0 0.0 0.00 0.29 0.00 95 1002.6
20260505123027 38 0 0.0 0.0 0.00 0.29 0.00 95 1002.5
20260505122510 38 157 0.0 0.0 0.00 0.29 0.00 95 1002.4
20260505122011 38 0 0.0 1.0 0.00 0.29 0.00 95 1002.5
20260505121534 38 0 0.0 1.0 0.00 0.29 0.00 95 1002.5
20260505121010 38 147 0.0 1.0 0.00 0.29 0.00 95 1002.5
20260505120512 38 0 0.0 0.0 0.00 0.29 0.00 95 1002.4
20260505120031 38 0 0.0 0.0 0.00 0.29 0.00 95 1002.3
20260505115509 39 0 0.0 0.0 0.00 0.33 0.00 95 1002.3
20260505115008 39 0 0.0 2.0 0.00 0.33 0.00 95 1002.2
20260505114527 39 0 0.0 2.0 0.00 0.33 0.00 95 1002.3
20260505114007 39 164 0.0 2.0 0.00 0.33 0.00 95 1002.4
20260505113509 39 173 0.0 2.0 0.00 0.33 0.00 95 1002.4
20260505113026 39 164 1.0 2.0 0.00 0.33 0.00 95 1002.4
20260505112513 38 134 0.0 1.0 0.00 0.33 0.00 95 1002.3
20260505112010 38 0 0.0 1.0 0.00 0.33 0.00 95 1002.3
20260505111528 38 159 0.0 0.0 0.00 0.33 0.00 95 1002.2
20260505111013 38 0 0.0 0.0 0.00 0.33 0.00 95 1002.2
20260505110512 38 0 0.0 0.0 0.00 0.33 0.00 95 1002.2
20260505102012 39 159 0.0 0.0 0.00 0.37 0.00 95 1002.4
20260505101535 39 0 0.0 0.0 0.00 0.37 0.00 95 1002.4
20260505101009 39 0 0.0 0.0 0.00 0.37 0.00 94 1002.4
20260505100510 39 0 0.0 0.0 0.00 0.37 0.00 94 1002.3
20260505100034 39 0 0.0 0.0 0.00 0.37 0.00 94 1002.5
20260505095513 39 0 0.0 0.0 0.00 0.39 0.00 94 1002.6
20260505095009 39 0 0.0 0.0 0.00 0.39 0.00 94 1002.6
20260505094527 39 0 0.0 0.0 0.00 0.39 0.00 94 1002.5
20260505094011 39 0 0.0 1.0 0.00 0.39 0.00 94 1002.3
20260505093510 39 159 0.0 2.0 0.00 0.39 0.00 94 1002.5
20260505093033 39 0 0.0 2.0 0.00 0.39 0.00 94 1002.4
20260505092511 39 244 0.0 1.0 0.00 0.39 0.00 94 1002.4
20260505092011 39 322 0.0 0.0 0.00 0.39 0.00 94 1002.4
20260505091534 39 0 0.0 1.0 0.00 0.39 0.00 94 1002.4
20260505091010 39 0 0.0 1.0 0.00 0.39 0.00 94 1002.4
20260505090510 39 0 0.0 1.0 0.00 0.39 0.00 93 1002.4
20260505090041 40 0 0.0 1.0 0.00 0.39 0.00 93 1002.5
20260505085509 40 0 0.0 1.0 0.00 0.42 0.00 93 1002.6
20260505085008 40 0 0.0 1.0 0.00 0.42 0.00 93 1002.6
20260505084527 40 289 0.0 1.0 0.00 0.42 0.00 93 1002.6
20260505084011 40 157 0.0 1.0 0.00 0.42 0.00 93 1002.4
20260505083509 40 157 0.0 5.0 0.00 0.42 0.00 92 1002.7
20260505083029 40 134 0.0 5.0 0.00 0.42 0.00 92 1002.5
20260505082515 41 153 2.0 4.0 0.00 0.42 0.00 91 1002.6
20260505082011 41 142 1.0 4.0 0.00 0.42 0.00 90 1002.6
20260505081531 41 154 2.0 4.0 0.00 0.42 0.00 89 1002.5
20260505081013 41 0 0.0 1.0 0.00 0.42 0.00 89 1002.4
20260505080508 41 0 0.0 1.0 0.00 0.42 0.00 89 1002.4
20260505080041 41 0 0.0 1.0 0.00 0.42 0.00 88 1002.6
20260505075510 41 0 0.0 0.0 0.00 0.45 0.42 89 1002.3
20260505075011 41 0 0.0 0.0 0.00 0.45 0.42 88 1002.4
20260505074530 42 0 0.0 1.0 0.00 0.45 0.42 87 1002.5
20260505074011 42 0 0.0 1.0 0.00 0.45 0.42 87 1002.6
20260505073508 42 0 0.0 0.0 0.00 0.45 0.42 87 1002.5
20260505073034 42 0 0.0 0.0 0.00 0.45 0.42 86 1002.6
20260505072508 43 0 0.0 0.0 0.00 0.45 0.42 85 1002.5
20260505072011 43 0 0.0 0.0 0.00 0.45 0.42 85 1002.6
20260505071537 43 0 0.0 0.0 0.00 0.45 0.42 84 1002.8
20260505071010 43 0 0.0 0.0 0.00 0.45 0.42 84 1002.9
20260505070510 43 0 0.0 0.0 0.00 0.45 0.42 84 1002.9
20260505070029 44 0 0.0 0.0 0.00 0.45 0.42 83 1002.9
20260505065509 44 0 0.0 0.0 0.00 0.48 0.42 83 1003.1
20260505065011 44 0 0.0 0.0 0.00 0.48 0.42 82 1003.0
20260505064533 44 153 0.0 0.0 0.00 0.48 0.42 81 1003.1
20260505064009 45 0 0.0 0.0 0.00 0.48 0.42 80 1002.9
20260505063511 45 0 0.0 1.0 0.00 0.48 0.42 79 1002.9
20260505063028 45 0 0.0 2.0 0.00 0.48 0.42 79 1002.7
20260505062511 46 153 0.0 2.0 0.00 0.48 0.42 78 1002.7
20260505062010 46 138 0.0 2.0 0.00 0.48 0.42 78 1002.7
20260505061531 46 126 0.0 1.0 0.00 0.48 0.42 79 1002.8
20260505061010 46 0 0.0 1.0 0.00 0.48 0.42 79 1002.7
20260505060514 46 0 0.0 1.0 0.00 0.48 0.42 79 1002.9
20260505060034 46 0 0.0 1.0 0.00 0.48 0.42 79 1003.0
20260505055515 47 252 0.0 1.0 0.00 0.49 0.42 78 1002.9
20260505055014 47 0 0.0 1.0 0.00 0.49 0.42 77 1003.0
20260505054530 47 252 0.0 1.0 0.00 0.49 0.42 77 1003.0
20260505054015 48 0 0.0 0.0 0.00 0.49 0.42 76 1003.1
20260505053510 48 0 0.0 0.0 0.00 0.49 0.42 75 1003.1
20260505053029 48 252 0.0 3.0 0.00 0.49 0.42 74 1003.1
20260505052512 49 0 0.0 3.0 0.00 0.49 0.42 72 1003.2
20260505052011 49 205 0.0 1.0 0.00 0.49 0.42 72 1003.3
20260505051530 49 0 0.0 1.0 0.00 0.49 0.42 71 1003.2
20260505051013 49 0 0.0 4.0 0.00 0.49 0.42 71 1003.3
20260505050510 49 0 0.0 4.0 0.00 0.49 0.42 70 1003.4
20260505041531 51 87 3.0 9.0 0.00 0.51 0.42 67 1003.6
20260505041010 52 155 3.0 8.0 0.00 0.51 0.42 66 1003.7
20260505040510 53 114 3.0 8.0 0.00 0.51 0.42 64 1003.8
20260505040033 53 162 1.0 7.0 0.00 0.51 0.42 61 1003.8
20260505035511 53 125 2.0 7.0 0.00 0.52 0.42 60 1003.8
20260505035012 54 115 2.0 9.0 0.00 0.52 0.42 59 1003.8
20260505034528 54 96 2.0 9.0 0.00 0.52 0.42 59 1003.9
20260505034011 54 107 2.0 7.0 0.00 0.52 0.42 59 1004.1